Вернуться в каталог

SL-3 DEB

АктивенPO
NORAD 26848·DEBRIS·🇷🇺 Russia

Запущен Dec 25, 1975 с Plesetsk Cosmodrome

Loading…

Ближайшие Пролёты (ближайшие 24 часа)

TLE

СвежийSource: Space-Track

Эпоха: Sep 14, 2026, 08:56 UTC

1 26848U 75124C   26257.37267390  .00000068  00000-0  31135-4 0  9997
2 26848  81.2762 127.7629 0013376  72.0247 288.2381 14.10147622371777

Отслеживайте SL-3 DEB в реальном времени с AllMySat

Download on the App Store